When you browse on this site, cookies collect data to enhance your experience and personalize the content and advertising you see.
Visit our Privacy Policy to learn more. By continuing to use the site, you agree to this use of cookies and data.
  • In Deutschland
  • Länderverzeichnis
  • Für 7 Tage
  • Wassertemperatur
  • Wetterkarte
  • Widgets
  • user-avatar
    Anmelden

    Stündliche Wetter Kirkenes

    Heute, 30 März, Montag

    Zeit Temperatur Niederschläge Wind Luftdruck Luftfeuchtigkeit
    00:00 -13°C° 0 mm 5 m/S 745 mmHg 91%
    01:00 -13°C° 0 mm 5 m/S 746 mmHg 91%
    02:00 -13°C° 0 mm 5 m/S 746 mmHg 90%
    03:00 -13°C° 0 mm 5 m/S 746 mmHg 91%
    04:00 -14°C° 0 mm 5 m/S 746 mmHg 91%
    05:00 -14°C° 0 mm 5 m/S 746 mmHg 92%
    06:00 -13°C° 0.1 mm 5 m/S 746 mmHg 91%
    07:00 -13°C° 0.1 mm 5 m/S 747 mmHg 91%
    08:00 -12°C° 0.1 mm 5 m/S 747 mmHg 90%
    09:00 -11°C° 0.2 mm 6 m/S 747 mmHg 88%
    10:00 -10°C° 0.2 mm 6 m/S 748 mmHg 86%
    11:00 -10°C° 0.2 mm 6 m/S 748 mmHg 85%
    12:00 -9°C° 0.2 mm 6 m/S 748 mmHg 83%
    13:00 -9°C° 0.2 mm 6 m/S 748 mmHg 81%
    14:00 -9°C° 0.2 mm 7 m/S 749 mmHg 79%
    15:00 -9°C° 0 mm 6 m/S 749 mmHg 81%
    16:00 -10°C° 0 mm 5 m/S 749 mmHg 84%
    17:00 -9°C° 0 mm 4 m/S 748 mmHg 86%
    18:00 -10°C° 0 mm 4 m/S 749 mmHg 88%
    19:00 -11°C° 0 mm 4 m/S 749 mmHg 89%
    20:00 -12°C° 0 mm 4 m/S 749 mmHg 90%
    21:00 -14°C° 0 mm 4 m/S 748 mmHg 89%
    22:00 -15°C° 0 mm 4 m/S 748 mmHg 89%
    23:00 -15°C° 0 mm 3 m/S 748 mmHg 89%

    Morgen, 31 März, Dienstag

    Zeit Temperatur Niederschläge Wind Luftdruck Luftfeuchtigkeit
    00:00 -15°C° 0 mm 3 m/S 747 mmHg 90%
    01:00 -15°C° 0 mm 3 m/S 747 mmHg 90%
    02:00 -16°C° 0 mm 3 m/S 747 mmHg 91%
    03:00 -16°C° 0 mm 3 m/S 746 mmHg 90%
    04:00 -16°C° 0 mm 3 m/S 745 mmHg 89%
    05:00 -17°C° 0 mm 3 m/S 744 mmHg 88%
    06:00 -17°C° 0 mm 4 m/S 743 mmHg 86%
    07:00 -16°C° 0 mm 4 m/S 742 mmHg 85%
    08:00 -15°C° 0 mm 4 m/S 741 mmHg 83%
    09:00 -14°C° 0 mm 6 m/S 740 mmHg 81%
    10:00 -13°C° 0 mm 7 m/S 738 mmHg 78%
    11:00 -12°C° 0 mm 9 m/S 737 mmHg 76%
    12:00 -11°C° 0.2 mm 9 m/S 736 mmHg 81%
    13:00 -12°C° 0.2 mm 10 m/S 734 mmHg 85%
    14:00 -12°C° 0.2 mm 10 m/S 733 mmHg 90%
    15:00 -12°C° 0.3 mm 10 m/S 732 mmHg 91%
    16:00 -12°C° 0.3 mm 10 m/S 731 mmHg 91%
    17:00 -10°C° 0.3 mm 9 m/S 730 mmHg 91%
    18:00 -11°C° 0.1 mm 9 m/S 729 mmHg 91%
    19:00 -11°C° 0.1 mm 8 m/S 729 mmHg 91%
    20:00 -11°C° 0.1 mm 8 m/S 728 mmHg 91%
    21:00 -12°C° 0.1 mm 7 m/S 728 mmHg 91%
    22:00 -11°C° 0.1 mm 6 m/S 728 mmHg 91%
    23:00 -11°C° 0.1 mm 5 m/S 727 mmHg 92%

    übermorgen, 1 April, Mittwoch

    Zeit Temperatur Niederschläge Wind Luftdruck Luftfeuchtigkeit
    00:00 -12°C° 0.1 mm 5 m/S 727 mmHg 92%
    01:00 -12°C° 0.1 mm 5 m/S 727 mmHg 93%
    02:00 -12°C° 0.1 mm 5 m/S 728 mmHg 93%
    03:00 -11°C° 0.1 mm 4 m/S 728 mmHg 94%
    04:00 -11°C° 0.1 mm 4 m/S 727 mmHg 94%
    05:00 -12°C° 0.1 mm 3 m/S 727 mmHg 94%
    06:00 -10°C° 0.1 mm 3 m/S 728 mmHg 94%
    07:00 -10°C° 0.1 mm 3 m/S 728 mmHg 93%
    08:00 -10°C° 0.1 mm 3 m/S 728 mmHg 92%
    09:00 -10°C° 0 mm 4 m/S 728 mmHg 90%
    10:00 -9°C° 0 mm 4 m/S 729 mmHg 88%
    11:00 -8°C° 0 mm 4 m/S 729 mmHg 86%
    12:00 -8°C° 0 mm 4 m/S 729 mmHg 86%
    13:00 -7°C° 0 mm 5 m/S 729 mmHg 86%
    14:00 -7°C° 0 mm 5 m/S 729 mmHg 85%
    15:00 -7°C° 0 mm 5 m/S 729 mmHg 86%
    16:00 -7°C° 0 mm 5 m/S 729 mmHg 88%
    17:00 -7°C° 0 mm 5 m/S 729 mmHg 89%
    18:00 -8°C° 0 mm 5 m/S 729 mmHg 90%
    19:00 -9°C° 0 mm 4 m/S 729 mmHg 91%
    20:00 -10°C° 0 mm 4 m/S 729 mmHg 93%
    21:00 -11°C° 0 mm 4 m/S 729 mmHg 93%
    22:00 -11°C° 0 mm 4 m/S 729 mmHg 93%
    23:00 -12°C° 0 mm 3 m/S 729 mmHg 93%

    2 April, Donnerstag

    Zeit Temperatur Niederschläge Wind Luftdruck Luftfeuchtigkeit
    00:00 -12°C° 0 mm 3 m/S 729 mmHg 93%
    01:00 -10°C° 0 mm 2 m/S 729 mmHg 93%
    02:00 -10°C° 0 mm 2 m/S 728 mmHg 93%
    03:00 -10°C° 0 mm 2 m/S 728 mmHg 93%
    04:00 -10°C° 0 mm 2 m/S 728 mmHg 93%
    05:00 -10°C° 0 mm 2 m/S 728 mmHg 93%
    06:00 -8°C° 0 mm 1 m/S 727 mmHg 92%
    07:00 -8°C° 0 mm 1 m/S 727 mmHg 91%
    08:00 -7°C° 0 mm 1 m/S 727 mmHg 91%
    09:00 -6°C° 0 mm 1 m/S 727 mmHg 88%
    10:00 -7°C° 0 mm 2 m/S 726 mmHg 85%
    11:00 -6°C° 0 mm 2 m/S 726 mmHg 82%
    12:00 -6°C° 0 mm 2 m/S 726 mmHg 82%
    13:00 -6°C° 0 mm 2 m/S 726 mmHg 83%
    14:00 -6°C° 0 mm 2 m/S 725 mmHg 83%
    15:00 -6°C° 0 mm 2 m/S 725 mmHg 85%
    16:00 -4°C° 0 mm 1 m/S 725 mmHg 88%
    17:00 -4°C° 0 mm 1 m/S 724 mmHg 90%
    18:00 -6°C° 0 mm 1 m/S 724 mmHg 91%
    19:00 -7°C° 0 mm 0 m/S 724 mmHg 91%
    20:00 -8°C° 0 mm 0 m/S 724 mmHg 92%
    21:00 -9°C° 0 mm 0 m/S 724 mmHg 93%
    22:00 -9°C° 0 mm 0 m/S 724 mmHg 93%
    23:00 -10°C° 0 mm 0 m/S 724 mmHg 94%

    3 April, Freitag

    Zeit Temperatur Niederschläge Wind Luftdruck Luftfeuchtigkeit
    00:00 -10°C° 0 mm 0 m/S 724 mmHg 95%
    01:00 -11°C° 0 mm 0 m/S 724 mmHg 95%
    02:00 -11°C° 0 mm 0 m/S 724 mmHg 96%
    03:00 -11°C° 0 mm 0 m/S 724 mmHg 96%
    04:00 -12°C° 0 mm 0 m/S 724 mmHg 96%
    05:00 -12°C° 0 mm 0 m/S 724 mmHg 96%
    06:00 -11°C° 0 mm 1 m/S 724 mmHg 95%
    07:00 -10°C° 0 mm 1 m/S 724 mmHg 93%
    08:00 -9°C° 0 mm 1 m/S 725 mmHg 92%
    09:00 -8°C° 0 mm 1 m/S 725 mmHg 90%
    10:00 -7°C° 0 mm 1 m/S 726 mmHg 88%
    11:00 -6°C° 0 mm 1 m/S 726 mmHg 86%
    12:00 -6°C° 0 mm 2 m/S 726 mmHg 86%
    13:00 -6°C° 0 mm 3 m/S 727 mmHg 86%
    14:00 -7°C° 0 mm 4 m/S 727 mmHg 85%
    15:00 -7°C° 0.1 mm 4 m/S 728 mmHg 85%
    16:00 -8°C° 0.1 mm 5 m/S 728 mmHg 84%
    17:00 -8°C° 0.1 mm 5 m/S 728 mmHg 84%
    18:00 -10°C° 0 mm 5 m/S 729 mmHg 83%
    19:00 -10°C° 0 mm 4 m/S 729 mmHg 82%
    20:00 -10°C° 0 mm 3 m/S 729 mmHg 80%
    21:00 -12°C° 0 mm 3 m/S 729 mmHg 79%
    22:00 -13°C° 0 mm 3 m/S 730 mmHg 78%
    23:00 -14°C° 0 mm 3 m/S 730 mmHg 77%

    4 April, Samstag

    Zeit Temperatur Niederschläge Wind Luftdruck Luftfeuchtigkeit
    00:00 -14°C° 0 mm 3 m/S 730 mmHg 78%
    01:00 -14°C° 0 mm 3 m/S 730 mmHg 78%
    02:00 -14°C° 0 mm 3 m/S 730 mmHg 79%
    03:00 -14°C° 0 mm 3 m/S 731 mmHg 80%
    04:00 -14°C° 0 mm 3 m/S 731 mmHg 81%
    05:00 -14°C° 0 mm 3 m/S 731 mmHg 82%
    06:00 -14°C° 0 mm 4 m/S 732 mmHg 82%
    07:00 -13°C° 0 mm 5 m/S 732 mmHg 82%
    08:00 -12°C° 0 mm 6 m/S 732 mmHg 81%
    09:00 -12°C° 0 mm 7 m/S 733 mmHg 82%
    10:00 -12°C° 0 mm 7 m/S 734 mmHg 82%
    11:00 -11°C° 0 mm 8 m/S 734 mmHg 82%
    12:00 -11°C° 0 mm 8 m/S 735 mmHg 79%
    13:00 -11°C° 0 mm 7 m/S 735 mmHg 77%
    14:00 -11°C° 0 mm 7 m/S 736 mmHg 74%
    15:00 -10°C° 0 mm 6 m/S 737 mmHg 75%
    16:00 -11°C° 0 mm 6 m/S 737 mmHg 75%
    17:00 -11°C° 0 mm 5 m/S 738 mmHg 75%
    18:00 -13°C° 0 mm 5 m/S 738 mmHg 76%
    19:00 -14°C° 0 mm 4 m/S 738 mmHg 76%
    20:00 -15°C° 0 mm 3 m/S 739 mmHg 76%
    21:00 -15°C° 0 mm 3 m/S 739 mmHg 76%
    22:00 -16°C° 0 mm 3 m/S 739 mmHg 75%
    23:00 -16°C° 0 mm 3 m/S 739 mmHg 74%
    Mehr zeigen